Epoch 2003 Mar. 22.0 TT = JDT 2452720.5
T 2003 Mar. 3.01903 TT MPC
q 1.5656912 (2000.0) P Q
n 0.15221268 Peri. 304.38653 +0.47317537 -0.85513527
a 3.4740455 Node 116.00570 +0.86568652 +0.40675255
e 0.5493176 Incl. 13.62894 +0.16337660 +0.32139701
P 6.48